FW1908 Weather Reports


Display with metric or nautical units.
time (UTC)temp
F
wind
direction
speed
MPH
gust
MPH
rain 1hr
in
rain 24hr
in
rain mn
in
humidity
%
barometer
mb
20260903201804 99 116 1.0 7.0 0.00 0.00 0.00 47 1016.4
20260903200304 99 153 2.0 6.0 0.00 0.00 0.00 48 1016.6
20260903195803 99 59 2.0 4.0 0.00 0.00 0.00 47 1016.6
20260903195306 99 256 2.0 7.0 0.00 0.00 0.00 48 1016.7
20260903195020 99 232 2.0 7.0 0.00 0.00 0.00 47 1016.8
20260903194302 99 295 2.0 5.0 0.00 0.00 0.00 45 1016.8
20260903193802 99 234 2.0 5.0 0.00 0.00 0.00 49 1016.8
20260903193302 99 86 2.0 7.0 0.00 0.00 0.00 47 1016.9
20260903192803 99 30 3.0 8.0 0.00 0.00 0.00 47 1016.9
20260903192257 99 108 3.0 9.0 0.00 0.00 0.00 46 1016.9
20260903192015 99 35 3.0 9.0 0.00 0.00 0.00 47 1017.0
20260903191245 99 82 1.0 3.0 0.00 0.00 0.00 48 1017.1
20260903190739 99 85 2.0 6.0 0.00 0.00 0.00 47 1017.1
20260903190233 99 85 3.0 8.0 0.00 0.00 0.00 46 1017.1
20260903185727 99 5 3.0 9.0 0.00 0.00 0.00 48 1017.1
20260903185221 99 66 2.0 9.0 0.00 0.00 0.00 49 1017.1
20260903184937 99 88 1.0 7.0 0.00 0.00 0.00 50 1017.3
20260903184210 99 95 2.0 7.0 0.00 0.00 0.00 49 1017.3
20260903183925 99 98 2.0 7.0 0.00 0.00 0.00 49 1017.4
20260903182651 99 77 3.0 11.0 0.00 0.00 0.00 48 1017.4
20260903182403 99 108 4.0 11.0 0.00 0.00 0.00 48 1017.5
20260903181133 99 130 2.0 7.0 0.00 0.00 0.00 47 1017.6
20260903180628 98 41 2.0 6.0 0.00 0.00 0.00 48 1017.5
20260903180121 98 70 1.0 4.0 0.00 0.00 0.00 51 1017.6
20260903175615 98 77 2.0 5.0 0.00 0.00 0.00 50 1017.6
20260903175109 98 78 2.0 5.0 0.00 0.00 0.00 49 1017.7
20260903174603 98 82 2.0 7.0 0.00 0.00 0.00 50 1017.7
20260903174059 98 71 2.0 7.0 0.00 0.00 0.00 49 1017.8
20260903173552 99 75 2.0 6.0 0.00 0.00 0.00 48 1017.8
20260903173046 99 103 2.0 6.0 0.00 0.00 0.00 50 1017.9
20260903172539 99 93 1.0 5.0 0.00 0.00 0.00 47 1018.0
20260903172256 99 180 2.0 5.0 0.00 0.00 0.00 46 1018.1
20260903171528 98 83 2.0 6.0 0.00 0.00 0.00 47 1018.1
20260903171021 98 111 2.0 9.0 0.00 0.00 0.00 50 1018.1
20260903170516 98 55 1.0 9.0 0.00 0.00 0.00 47 1018.1
20260903170011 98 166 0.0 6.0 0.00 0.00 0.00 47 1018.2
20260903165504 98 93 0.0 0.0 0.00 0.00 0.00 46 1018.2
20260903164957 98 103 0.0 0.0 0.00 0.00 0.00 48 1018.3
20260903164452 98 17 0.0 0.0 0.00 0.00 0.00 49 1018.4
20260903163945 98 35 0.0 0.0 0.00 0.00 0.00 49 1018.4
20260903163702 97 31 0.0 0.0 0.00 0.00 0.00 52 1018.4
20260903162933 97 20 0.0 0.0 0.00 0.00 0.00 48 1018.4
20260903162428 97 97 0.0 0.0 0.00 0.00 0.00 51 1018.5
20260903161921 97 103 0.0 0.0 0.00 0.00 0.00 50 1018.6
20260903161416 96 105 0.0 0.0 0.00 0.00 0.00 51 1018.6
20260903160910 96 246 0.0 0.0 0.00 0.00 0.00 51 1018.7
20260903160404 96 60 0.0 0.0 0.00 0.00 0.00 50 1018.7
20260903155857 96 45 0.0 0.0 0.00 0.00 0.00 53 1018.7
20260903155351 95 82 0.0 0.0 0.00 0.00 0.00 51 1018.6
20260903154845 95 71 0.0 0.0 0.00 0.00 0.00 54 1018.7
20260903154340 95 92 0.0 0.0 0.00 0.00 0.00 56 1018.7
20260903154053 95 34 0.0 0.0 0.00 0.00 0.00 56 1018.6
20260903153327 94 64 0.0 0.0 0.00 0.00 0.00 59 1018.7
20260903152822 94 16 0.0 0.0 0.00 0.00 0.00 62 1018.8
20260903152316 93 10 0.0 0.0 0.00 0.00 0.00 60 1018.9
20260903151811 93 86 0.0 0.0 0.00 0.00 0.00 65 1018.8
20260903151308 92 86 0.0 0.0 0.00 0.00 0.00 66 1018.8
20260903150808 92 86 0.0 0.0 0.00 0.00 0.00 68 1018.8
20260903150304 91 80 0.0 0.0 0.00 0.00 0.00 66 1018.8
20260903150023 91 69 0.0 0.0 0.00 0.00 0.00 67 1018.7
20260903145518 90 68 0.0 0.0 0.00 0.00 0.00 70 1018.7
20260903144800 89 68 0.0 0.0 0.00 0.00 0.00 69 1018.7
20260903144258 89 69 0.0 0.0 0.00 0.00 0.00 70 1018.6
20260903143755 88 346 0.0 0.0 0.00 0.00 0.00 72 1018.6
20260903143255 88 337 0.0 0.0 0.00 0.00 0.00 74 1018.7
20260903143019 87 338 0.0 0.0 0.00 0.00 0.00 73 1018.7
20260903142257 87 321 0.0 0.0 0.00 0.00 0.00 74 1018.7
20260903141754 87 300 0.0 0.0 0.00 0.00 0.00 78 1018.7
20260903141251 86 300 0.0 0.0 0.00 0.00 0.00 79 1018.7
20260903140751 85 300 0.0 0.0 0.00 0.00 0.00 80 1018.7
20260903140252 84 300 0.0 0.0 0.00 0.00 0.00 80 1018.6
20260903135751 83 300 0.0 0.0 0.00 0.00 0.00 83 1018.7
20260903135251 83 304 0.0 0.0 0.00 0.00 0.00 84 1018.6
20260903134748 82 310 0.0 0.0 0.00 0.00 0.00 84 1018.6
20260903134248 81 327 0.0 0.0 0.00 0.00 0.00 84 1018.6
20260903133745 80 325 0.0 0.0 0.00 0.00 0.00 85 1018.7
20260903133244 80 325 0.0 0.0 0.00 0.00 0.00 87 1018.7
20260903132743 79 325 0.0 0.0 0.00 0.00 0.00 88 1018.7
20260903132509 79 325 0.0 0.0 0.00 0.00 0.00 89 1018.8
20260903132007 78 325 0.0 0.0 0.00 0.00 0.00 91 1018.9
20260903131239 78 325 0.0 0.0 0.00 0.00 0.00 91 1018.9
20260903130738 78 230 0.0 0.0 0.00 0.00 0.00 92 1018.9
20260903130238 77 230 0.0 0.0 0.00 0.00 0.00 93 1019.0
20260903125735 77 313 0.0 0.0 0.00 0.00 0.00 93 1019.0
20260903125233 77 197 0.0 0.0 0.00 0.00 0.00 93 1019.0
20260903124733 76 75 0.0 0.0 0.00 0.00 0.00 93 1019.1
20260903124500 76 74 0.0 0.0 0.00 0.00 0.00 93 1019.0
20260903123952 76 74 0.0 0.0 0.00 0.00 0.00 93 1019.1
20260903123228 76 74 0.0 0.0 0.00 0.00 0.00 93 1019.1
20260903122727 76 74 0.0 0.0 0.00 0.00 0.00 93 1019.1
20260903122227 75 74 0.0 0.0 0.00 0.00 0.00 93 1019.1
20260903121728 75 74 0.0 0.0 0.00 0.00 0.00 93 1019.0
20260903121453 75 74 0.0 0.0 0.00 0.00 0.00 93 1019.0
20260903120951 75 74 0.0 0.0 0.00 0.00 0.00 93 1018.9
20260903120228 75 74 0.0 0.0 0.00 0.00 0.00 92 1018.9
20260903115728 75 74 0.0 0.0 0.00 0.00 0.00 93 1018.9
20260903115228 75 74 0.0 0.0 0.00 0.00 0.00 92 1018.9
20260903114949 75 74 0.0 0.0 0.00 0.00 0.00 92 1018.9
20260903114223 75 74 0.0 0.0 0.00 0.00 0.00 92 1018.8
20260903113724 75 74 0.0 0.0 0.00 0.00 0.00 92 1018.8
20260903113224 75 74 0.0 0.0 0.00 0.00 0.00 92 1018.7
20260903112723 75 74 0.0 0.0 0.00 0.00 0.00 92 1018.6
20260903112224 75 74 0.0 0.0 0.00 0.00 0.00 92 1018.6
20260903111724 75 74 0.0 0.0 0.00 0.00 0.00 92 1018.6
20260903110224 75 74 0.0 0.0 0.00 0.00 0.00 91 1018.4
20260903105724 75 74 0.0 0.0 0.00 0.00 0.00 92 1018.4
20260903105224 75 74 0.0 0.0 0.00 0.00 0.00 92 1018.3
20260903104944 75 74 0.0 0.0 0.00 0.00 0.00 92 1018.3
20260903104223 75 74 0.0 0.0 0.00 0.00 0.00 92 1018.3
20260903103723 75 74 0.0 0.0 0.00 0.00 0.00 92 1018.3
20260903103223 75 74 0.0 0.0 0.00 0.00 0.00 92 1018.4
20260903102723 75 74 0.0 0.0 0.00 0.00 0.00 92 1018.3
20260903102223 75 74 0.0 0.0 0.00 0.00 0.00 92 1018.2
20260903101721 75 74 0.0 0.0 0.00 0.00 0.00 91 1018.2
20260903101222 75 74 0.0 0.0 0.00 0.00 0.00 91 1018.2
20260903100722 75 74 0.0 0.0 0.00 0.00 0.00 91 1018.2
20260903100221 75 74 0.0 0.0 0.00 0.00 0.00 91 1018.1
20260903095719 75 74 0.0 0.0 0.00 0.00 0.00 91 1018.0
20260903095217 75 74 0.0 0.0 0.00 0.00 0.00 91 1018.0
20260903094713 75 74 0.0 0.0 0.00 0.00 0.00 91 1018.0
20260903094214 75 74 0.0 0.0 0.00 0.00 0.00 91 1018.0
20260903093711 76 74 0.0 0.0 0.00 0.00 0.00 91 1018.0
20260903093211 76 74 0.0 0.0 0.00 0.00 0.00 91 1018.0
20260903092712 76 74 0.0 0.0 0.00 0.00 0.00 91 1017.9
20260903092209 76 74 0.0 0.0 0.00 0.00 0.00 91 1017.9
20260903091708 76 74 0.0 0.0 0.00 0.00 0.00 91 1018.0
20260903091208 76 74 0.0 0.0 0.00 0.00 0.00 91 1017.9
20260903090707 76 74 0.0 0.0 0.00 0.00 0.00 91 1018.0
20260903090200 76 74 0.0 0.0 0.00 0.00 0.00 90 1018.0
20260903085654 76 74 0.0 0.0 0.00 0.00 0.00 90 1018.0
20260903085148 76 74 0.0 0.0 0.00 0.00 0.00 90 1018.0
20260903084903 76 74 0.0 0.0 0.00 0.00 0.00 90 1018.0
20260903084136 76 74 0.0 0.0 0.00 0.00 0.00 90 1018.0
20260903083630 76 74 0.0 0.0 0.00 0.00 0.00 90 1017.9
20260903083343 76 74 0.0 0.0 0.00 0.00 0.00 90 1017.9
20260903082618 76 74 0.0 0.0 0.00 0.00 0.00 90 1017.8
20260903082112 76 74 0.0 0.0 0.00 0.00 0.00 90 1017.8
20260903081606 76 74 0.0 0.0 0.00 0.00 0.00 90 1017.8
20260903081318 76 74 0.0 0.0 0.00 0.00 0.00 90 1017.7
20260903080554 77 74 0.0 0.0 0.00 0.00 0.00 90 1017.7
20260903080048 77 74 0.0 0.0 0.00 0.00 0.00 90 1017.8
20260903075542 77 74 0.0 0.0 0.00 0.00 0.00 89 1017.7
20260903075036 77 74 0.0 0.0 0.00 0.00 0.00 89 1017.8
20260903074749 77 74 0.0 0.0 0.00 0.00 0.00 89 1017.6
20260903074024 77 74 0.0 0.0 0.00 0.00 0.00 89 1017.6
20260903073519 77 74 0.0 0.0 0.00 0.00 0.00 89 1017.6
20260903073012 77 74 0.0 0.0 0.00 0.00 0.00 88 1017.5
20260903072507 77 74 0.0 0.0 0.00 0.00 0.00 88 1017.5
20260903072000 77 74 0.0 0.0 0.00 0.00 0.00 88 1017.5
20260903071720 77 74 0.0 1.0 0.00 0.00 0.00 88 1017.4
20260903070948 77 74 0.0 1.0 0.00 0.00 0.00 88 1017.4
20260903070714 77 74 0.0 0.0 0.00 0.00 0.00 88 1017.3
20260903065936 77 74 0.0 1.0 0.00 0.00 0.00 88 1017.3
20260903065431 78 74 0.0 1.0 0.00 0.00 0.00 88 1017.4
20260903064925 78 74 0.0 0.0 0.00 0.00 0.00 87 1017.4
20260903064418 78 74 0.0 1.0 0.00 0.00 0.00 87 1017.4
20260903063912 78 74 0.0 1.0 0.00 0.00 0.00 87 1017.4
20260903063628 78 74 0.0 1.0 0.00 0.00 0.00 87 1017.4
20260903062900 78 74 0.0 2.0 0.00 0.00 0.00 87 1017.4
20260903062619 78 74 0.0 2.0 0.00 0.00 0.00 87 1017.3
20260903061848 78 74 0.0 1.0 0.00 0.00 0.00 87 1017.2
20260903061343 78 74 0.0 1.0 0.00 0.00 0.00 86 1017.3
20260903061101 78 74 0.0 1.0 0.00 0.00 0.00 86 1017.3
20260903060330 78 74 0.0 1.0 0.00 0.00 0.00 86 1017.3
20260903055825 78 74 0.0 1.0 0.00 0.00 0.00 86 1017.3
20260903055318 79 74 0.0 1.0 0.00 0.00 0.00 86 1017.3
20260903054813 79 74 0.0 1.0 0.00 0.00 0.00 86 1017.3
20260903054306 79 74 0.0 1.0 0.00 0.00 0.00 85 1017.3
20260903053800 79 74 0.0 0.0 0.00 0.00 0.00 85 1017.4
20260903053254 79 74 0.0 0.0 0.00 0.00 0.00 85 1017.4
20260903053014 79 74 0.0 0.0 0.00 0.00 0.00 85 1017.4
20260903052243 79 74 0.0 0.0 0.00 0.00 0.00 85 1017.4
20260903051737 79 74 0.0 1.0 0.00 0.00 0.00 85 1017.3
20260903051231 79 74 0.0 1.0 0.00 0.00 0.00 85 1017.3
20260903050724 79 74 0.0 0.0 0.00 0.00 0.00 85 1017.3
20260903050218 80 74 0.0 0.0 0.00 0.00 0.00 85 1017.3
20260903045712 80 74 0.0 1.0 0.00 0.00 0.00 85 1017.4
20260903045207 80 74 0.0 1.0 0.00 0.00 0.00 85 1017.4
20260903044926 80 74 0.0 1.0 0.00 0.00 0.00 85 1017.4
20260903044154 80 74 0.0 1.0 0.00 0.00 0.00 85 1017.4
20260903043143 80 74 0.0 1.0 0.00 0.00 0.00 84 1017.3
20260903042900 80 74 0.0 1.0 0.00 0.00 0.00 85 1017.3
20260903042130 80 74 0.0 1.0 0.00 0.00 0.00 84 1017.1
20260903041847 80 74 0.0 0.0 0.00 0.00 0.00 84 1017.3
20260903040612 81 74 0.0 0.0 0.00 0.00 0.00 83 1017.7
20260903040107 81 74 0.0 0.0 0.00 0.00 0.00 83 1017.8
20260903035600 81 74 0.0 0.0 0.00 0.00 0.00 83 1017.8
20260903035055 81 74 0.0 1.0 0.00 0.00 0.00 83 1017.8
20260903034548 81 74 0.0 1.0 0.00 0.00 0.00 82 1017.9
20260903034044 81 74 0.0 0.0 0.00 0.00 0.00 81 1017.9
20260903033537 81 74 0.0 0.0 0.00 0.00 0.00 81 1018.0
20260903033031 81 74 0.0 0.0 0.00 0.00 0.00 81 1018.0
20260903032019 82 74 0.0 0.0 0.00 0.00 0.00 80 1018.1
20260903031512 82 74 0.0 0.0 0.00 0.00 0.00 80 1018.2
20260903031006 82 74 0.0 0.0 0.00 0.00 0.00 80 1018.2
20260903030501 82 74 0.0 0.0 0.00 0.00 0.00 79 1018.2
20260903025954 82 74 0.0 0.0 0.00 0.00 0.00 79 1018.3
20260903025449 82 74 0.0 0.0 0.00 0.00 0.00 79 1018.3
20260903024942 82 74 0.0 0.0 0.00 0.00 0.00 79 1018.5
20260903024437 83 74 0.0 0.0 0.00 0.00 0.00 78 1018.5
20260903024200 83 74 0.0 0.0 0.00 0.00 0.00 78 1018.5
20260903023424 83 74 0.0 0.0 0.00 0.00 0.00 78 1018.5
20260903023142 83 74 0.0 0.0 0.00 0.00 0.00 78 1018.5
20260903022412 83 74 0.0 0.0 0.00 0.00 0.00 77 1018.5
20260903021907 83 74 0.0 0.0 0.00 0.00 0.00 77 1018.6
20260903021401 83 74 0.0 0.0 0.00 0.00 0.00 77 1018.6
20260903021115 83 74 0.0 0.0 0.00 0.00 0.00 76 1018.6
20260903020348 84 74 0.0 0.0 0.00 0.00 0.00 76 1018.5
20260903015842 84 74 0.0 0.0 0.00 0.00 0.00 76 1018.5
20260903015558 84 74 0.0 0.0 0.00 0.00 0.00 76 1018.4
20260903014830 84 74 0.0 0.0 0.00 0.00 0.00 75 1018.3
20260903014324 85 74 0.0 0.0 0.00 0.00 0.00 74 1018.2
20260903013818 85 74 0.0 0.0 0.00 0.00 0.00 74 1018.1
20260903013313 85 74 0.0 0.0 0.00 0.00 0.00 73 1018.1
20260903012806 85 74 0.0 0.0 0.00 0.00 0.00 73 1018.0
20260903012300 85 74 0.0 0.0 0.00 0.00 0.00 72 1018.0
20260903011754 85 74 0.0 0.0 0.00 0.00 0.00 71 1018.0
20260903011249 85 74 0.0 0.0 0.00 0.00 0.00 71 1017.9
20260903010742 86 74 0.0 0.0 0.00 0.00 0.00 71 1017.8
20260903010237 86 74 0.0 0.0 0.00 0.00 0.00 71 1017.7
20260903005735 86 74 0.0 0.0 0.00 0.00 0.00 70 1017.7
20260903005454 87 74 0.0 0.0 0.00 0.00 0.00 69 1017.6
20260903004948 87 74 0.0 0.0 0.00 0.00 0.00 69 1017.5
20260903004229 87 74 0.0 0.0 0.00 0.00 0.00 68 1017.5
20260903003727 87 74 0.0 0.0 0.00 0.00 0.00 68 1017.5
20260903003225 88 74 0.0 0.0 0.00 0.00 0.00 67 1017.5
20260903002723 88 74 0.0 0.0 0.00 0.00 0.00 66 1017.4
20260903002220 88 74 0.0 0.0 0.00 0.00 0.00 65 1017.4
20260903001719 89 74 0.0 0.0 0.00 0.00 0.00 64 1017.3
20260903001217 89 74 0.0 0.0 0.00 0.00 0.00 64 1017.3
20260903000714 89 74 0.0 0.0 0.00 0.00 0.00 64 1017.3
20260903000213 89 74 0.0 0.0 0.00 0.00 0.00 63 1017.2
20260902235939 90 74 0.0 0.0 0.00 0.00 0.00 61 1017.2
20260902235209 90 74 0.0 0.0 0.00 0.00 0.00 61 1017.2
20260902234709 90 74 0.0 0.0 0.00 0.00 0.00 60 1017.1
20260902234431 91 74 0.0 0.0 0.00 0.00 0.00 60 1017.1
20260902233705 91 74 0.0 0.0 0.00 0.00 0.00 59 1017.1
20260902233204 91 74 0.0 0.0 0.00 0.00 0.00 59 1017.1
20260902232705 92 74 0.0 0.0 0.00 0.00 0.00 59 1017.1
20260902232203 92 74 0.0 0.0 0.00 0.00 0.00 59 1017.0
20260902231702 92 74 0.0 0.0 0.00 0.00 0.00 58 1017.1
20260902231157 92 74 0.0 0.0 0.00 0.00 0.00 55 1017.1
20260902230654 93 74 0.0 0.0 0.00 0.00 0.00 55 1017.1
20260902230154 93 74 0.0 0.0 0.00 0.00 0.00 54 1017.1
20260902225654 93 74 0.0 0.0 0.00 0.00 0.00 55 1017.0
20260902225153 93 74 0.0 0.0 0.00 0.00 0.00 54 1017.0
20260902224652 93 74 0.0 0.0 0.00 0.00 0.00 54 1017.0
20260902224151 93 74 0.0 0.0 0.00 0.00 0.00 53 1017.0
20260902223913 93 74 0.0 0.0 0.00 0.00 0.00 53 1017.1
20260902223147 93 44 0.0 0.0 0.00 0.00 0.00 52 1017.0
20260902222646 94 101 0.0 0.0 0.00 0.00 0.00 52 1017.0
20260902222146 94 101 0.0 0.0 0.00 0.00 0.00 54 1017.1
20260902221647 94 101 0.0 0.0 0.00 0.00 0.00 53 1017.1
20260902221147 94 101 0.0 0.0 0.00 0.00 0.00 52 1017.0
20260902220646 94 101 0.0 0.0 0.00 0.00 0.00 52 1017.1
20260902220144 95 101 0.0 0.0 0.00 0.00 0.00 52 1017.1
20260902215643 95 101 0.0 0.0 0.00 0.00 0.00 50 1017.1
20260902215140 95 101 0.0 0.0 0.00 0.00 0.00 48 1017.2
20260902214904 95 101 0.0 1.0 0.00 0.00 0.00 47 1017.2
20260902214141 95 102 0.0 1.0 0.00 0.00 0.00 48 1017.1
20260902213639 95 106 0.0 0.0 0.00 0.00 0.00 51 1017.2
20260902213401 95 106 0.0 0.0 0.00 0.00 0.00 48 1017.2
20260902212638 95 106 0.0 0.0 0.00 0.00 0.00 47 1017.2
20260902212139 96 107 0.0 0.0 0.00 0.00 0.00 47 1017.2
20260902211639 96 335 0.0 1.0 0.00 0.00 0.00 47 1017.3
20260902211406 96 99 0.0 2.0 0.00 0.00 0.00 48 1017.2
20260902210635 96 101 0.0 2.0 0.00 0.00 0.00 47 1017.3
20260902210135 96 43 0.0 1.0 0.00 0.00 0.00 46 1017.3
20260902205135 96 40 0.0 2.0 0.00 0.00 0.00 47 1017.4
20260902204135 96 57 0.0 3.0 0.00 0.00 0.00 46 1017.4
20260902203635 97 61 0.0 3.0 0.00 0.00 0.00 47 1017.4
20260902203134 97 259 0.0 2.0 0.00 0.00 0.00 49 1017.4
20260902202634 97 259 0.0 3.0 0.00 0.00 0.00 50 1017.4